Theta_e
326 327 328 327 326 325 323 321 318 314 315 319 323 325 327 328 329 329 329 329 328 328 326 324 324 323 323 323 323 322 320 318 316 315 315 316 317 317 316 314 313 312 312 312 313 316 318 319 320 320 320 319 317 316 317 319 320 322 324 326 327 327 327 327 327 326 326 326 326 326 326 326 326 325 325 325 324 323 322 322 322 321 320 319 319
325 326 326 326 324 323 321 319 317 314 316 322 325 326 327 328 329 330 330 330 330 329 328 326 325 324 323 323 324 324 323 321 320 318 317 318 318 320 320 318 317 316 316 315 314 314 314 314 314 315 316 315 315 316 317 320 322 321 322 324 325 326 326 326 327 327 326 327 327 326 327 327 326 326 325 325 324 324 323 323 322 322 322 320 320
325 326 325 325 323 321 319 318 316 314 317 322 324 325 327 328 329 330 331 331 331 330 329 328 328 327 326 326 325 325 323 322 321 320 320 320 320 321 322 322 322 321 320 319 318 317 316 315 315 316 316 316 317 318 319 321 322 322 322 323 324 325 326 326 326 326 326 327 327 327 327 327 327 326 326 325 325 324 324 324 323 323 322 321 321
326 325 325 324 321 319 317 317 315 314 316 320 322 324 325 326 327 329 331 331 331 331 331 330 330 329 329 329 328 328 326 324 321 321 321 321 322 322 323 323 324 323 323 323 323 322 321 320 321 321 320 320 320 321 321 322 323 324 325 325 325 326 326 326 326 326 326 326 326 326 325 326 326 326 326 325 325 325 325 324 324 323 323 322 321
326 324 323 321 318 316 315 315 314 314 317 319 321 323 323 324 325 327 329 331 331 332 332 332 332 332 331 331 330 330 329 328 326 324 323 322 322 322 322 323 323 324 324 324 324 324 324 323 323 324 323 323 323 322 322 323 324 325 325 326 326 327 327 326 326 326 325 324 324 324 323 323 323 325 326 326 326 326 326 325 325 324 323 323 323
322 321 319 317 315 314 314 314 315 316 318 320 321 322 323 323 324 325 327 329 330 331 332 332 332 332 332 332 332 332 331 331 330 329 328 326 324 322 322 322 322 322 322 323 323 324 324 325 324 324 324 323 323 322 323 324 325 326 326 326 326 327 327 326 326 325 325 324 324 325 324 323 322 323 325 326 326 326 326 326 326 325 324 324 323
317 317 316 316 315 316 316 318 318 319 320 321 321 322 323 324 325 326 327 328 329 331 332 332 333 333 333 333 333 333 333 332 332 332 332 331 329 327 325 324 323 322 322 322 322 321 321 322 323 323 323 324 323 323 323 324 325 325 326 326 326 326 326 326 326 325 325 324 325 325 325 325 325 324 325 325 325 326 326 326 326 325 325 324 323
318 317 317 318 318 319 320 321 321 322 322 322 322 323 324 325 327 328 329 329 329 330 331 332 333 333 333 333 333 333 333 333 332 332 331 332 332 331 330 328 327 327 327 326 325 324 322 321 320 320 321 321 322 322 322 323 324 324 324 324 325 326 326 326 325 325 325 324 324 324 323 324 325 325 326 326 325 326 326 326 326 326 325 324 323
320 320 320 320 320 321 322 322 323 323 324 324 325 327 328 329 331 332 332 332 332 332 332 332 333 332 332 332 331 331 331 331 331 331 331 331 331 331 331 331 330 330 330 330 329 328 327 325 323 322 321 321 321 322 323 325 325 325 324 323 323 324 325 325 325 325 325 324 323 323 322 323 323 323 323 324 324 325 325 326 327 327 326 325 324
323 323 324 324 325 326 326 326 327 328 329 330 331 332 333 333 334 334 334 334 334 333 333 332 332 331 331 330 330 330 329 328 328 329 329 330 330 329 328 328 328 328 329 329 329 330 330 329 328 327 326 325 324 323 324 325 326 327 326 325 323 322 321 322 322 322 322 321 321 322 322 321 320 321 321 321 322 323 325 326 326 326 326 326 325
329 329 329 330 331 332 332 332 332 332 333 333 334 334 334 334 334 333 333 333 332 333 332 332 332 332 330 328 329 329 327 327 329 330 328 327 328 327 324 324 326 326 327 327 327 329 330 330 330 330 329 329 328 328 326 326 327 327 328 327 325 322 319 318 319 320 321 322 322 323 323 320 319 320 321 321 322 322 323 324 325 325 326 326 325
333 334 334 334 335 335 334 334 334 334 334 334 334 334 333 332 332 331 331 330 331 331 330 330 332 333 331 330 329 329 329 328 329 330 328 325 327 329 328 325 324 324 323 323 324 326 328 329 330 330 330 330 330 329 328 328 328 328 328 327 325 322 318 316 316 318 321 324 324 323 323 321 320 319 319 320 322 323 324 324 325 325 325 326 325
334 335 335 335 335 335 334 334 334 334 333 333 332 331 331 330 327 327 327 326 327 328 329 331 331 332 332 331 329 330 331 328 324 325 327 326 325 327 326 323 321 319 318 320 321 322 323 325 327 328 329 329 329 329 329 328 328 327 327 325 322 319 317 314 313 314 316 320 322 322 322 321 320 319 319 320 322 323 324 324 325 325 325 325 325
334 334 334 334 334 334 334 333 333 333 332 331 330 331 333 331 330 330 329 329 330 329 330 331 332 331 329 328 327 327 329 328 324 325 330 330 324 320 320 319 318 316 316 316 316 317 317 318 320 323 326 329 329 328 327 327 327 326 325 322 319 318 317 315 312 311 312 313 316 319 321 321 319 319 320 322 323 323 324 325 325 325 324 324 324
334 334 334 334 334 334 334 333 332 331 331 330 330 331 332 331 332 333 332 331 332 331 329 327 328 329 327 328 330 330 330 328 325 325 329 328 321 318 319 318 318 318 318 319 318 317 316 316 316 316 320 326 327 326 326 325 325 324 323 321 320 320 321 320 316 312 310 310 311 314 318 320 319 319 320 322 323 324 324 324 324 324 324 324 324
333 333 333 333 333 334 334 333 333 332 330 329 329 329 329 328 326 328 331 332 332 332 328 323 325 327 325 326 329 330 329 327 326 326 325 323 321 322 323 321 320 321 322 323 322 320 319 319 318 317 319 322 324 326 326 325 324 323 323 323 322 323 324 324 321 316 312 310 310 311 312 317 320 320 321 322 323 324 323 324 324 324 324 324 324
333 332 332 332 331 332 331 331 332 332 330 328 328 329 327 326 324 324 330 331 330 330 326 325 329 330 328 329 331 331 330 328 328 326 322 321 322 324 325 321 319 321 323 324 323 322 321 320 321 321 320 321 323 325 325 324 325 324 324 324 325 325 326 326 323 321 317 312 310 310 309 316 320 320 321 323 323 323 323 323 323 323 323 322 323
330 331 331 330 330 330 329 329 329 329 328 326 329 331 327 326 326 325 329 330 328 327 326 328 332 330 327 327 327 327 326 325 325 324 322 323 323 322 323 322 319 319 322 325 324 322 319 319 320 319 319 318 318 321 321 321 323 325 324 324 325 327 326 326 324 322 321 315 310 308 308 314 319 319 321 323 322 323 322 321 322 321 319 315 317
322 325 326 327 328 328 328 328 328 327 326 325 326 327 325 326 327 326 329 331 329 329 328 327 327 325 323 322 324 323 322 326 328 327 327 328 325 322 322 322 319 318 320 323 323 321 320 318 317 317 317 317 316 317 318 317 319 323 325 325 325 327 327 326 324 323 322 317 311 308 307 311 316 319 321 321 322 322 322 321 320 315 310 308 312
314 316 318 320 322 324 325 326 327 326 326 324 324 323 323 326 327 326 329 330 329 330 330 329 327 326 326 326 329 326 323 327 329 327 328 328 325 321 321 321 322 320 320 321 321 320 319 316 316 315 316 318 319 318 318 318 317 319 322 325 325 326 327 326 325 323 322 319 313 309 307 308 314 320 321 322 322 322 321 320 314 308 307 310 313
310 311 312 314 315 317 318 320 322 323 323 324 324 324 323 324 325 326 328 328 328 329 330 330 328 327 328 329 329 328 324 325 326 326 326 326 325 325 325 326 325 322 319 320 319 317 316 314 315 315 314 317 318 317 317 318 319 318 319 323 326 327 327 327 326 324 322 320 314 310 308 307 313 319 320 321 321 321 322 316 308 308 312 314 314
307 308 309 310 312 313 314 315 316 317 319 320 322 323 323 324 324 325 325 326 327 329 329 329 328 327 326 325 326 328 327 325 325 324 323 326 329 328 327 326 323 320 318 319 319 319 320 318 316 316 315 315 316 316 317 317 319 319 318 322 326 326 326 327 326 324 322 320 315 310 309 307 312 319 321 321 321 321 318 310 308 314 316 316 316
304 305 305 306 308 309 311 313 315 316 317 318 319 320 321 322 322 322 322 323 323 325 326 326 328 330 328 325 326 327 326 325 325 324 324 328 328 325 324 324 324 323 322 322 322 324 325 322 318 317 316 314 315 316 316 316 319 318 316 322 326 325 326 327 325 323 321 319 315 310 309 308 310 317 319 319 318 316 311 309 313 316 316 316 317
303 303 303 304 304 305 306 307 310 312 314 316 317 318 318 319 320 320 320 320 321 322 323 323 325 327 327 328 328 326 326 326 325 325 326 326 326 325 325 326 326 325 324 324 323 322 322 319 316 315 315 315 315 315 313 317 322 319 314 320 326 325 324 324 322 322 321 319 315 310 309 310 313 315 314 313 311 309 309 313 316 316 316 316 316
303 303 303 303 303 303 303 303 304 305 307 309 311 313 315 317 318 318 319 319 320 321 322 322 322 322 323 324 324 324 325 325 325 326 326 325 324 324 324 323 322 322 321 320 318 318 316 314 313 314 314 316 318 318 315 319 324 323 318 321 326 325 321 320 320 320 319 316 314 310 308 312 317 316 312 308 305 305 308 312 314 314 314 315 314
303 303 303 303 303 303 303 303 303 303 303 304 304 305 308 310 312 314 315 316 317 318 319 319 320 320 320 320 320 321 321 322 322 323 324 322 320 319 319 319 318 317 318 317 316 317 315 314 317 319 318 320 324 323 321 321 323 324 324 325 326 323 319 319 320 318 314 311 309 308 308 312 315 314 309 305 303 304 307 309 310 311 312 313 313
302 302 302 302 302 302 302 303 303 303 303 303 303 303 303 304 305 306 308 309 311 312 314 314 315 316 316 316 316 316 316 317 317 317 318 317 317 316 316 317 316 315 315 315 315 315 316 318 322 323 323 325 325 324 324 322 320 323 326 326 325 323 320 320 320 318 317 315 312 309 307 309 311 310 307 305 303 305 307 308 309 310 311 313 314
302 301 301 301 302 302 302 302 302 302 302 302 302 303 303 303 303 303 304 304 305 306 307 309 310 310 311 311 311 312 312 312 312 312 313 313 314 315 315 315 316 316 316 316 315 316 318 321 322 322 323 324 324 322 323 321 319 323 326 325 324 324 323 322 320 318 319 321 319 314 308 307 307 307 305 305 304 305 307 308 309 310 311 312 314
300 300 300 300 300 300 301 301 301 301 301 302 302 302 302 302 302 303 303 303 303 303 304 305 305 306 307 308 308 309 309 309 310 310 310 311 312 313 314 314 315 317 319 319 317 316 316 317 317 318 320 321 321 320 320 319 318 321 324 324 323 322 323 322 320 318 318 320 321 317 310 306 306 306 305 305 305 306 307 308 309 309 309 310 312
298 298 299 299 299 299 299 299 300 300 300 301 301 301 301 302 302 302 302 302 302 303 303 303 304 304 304 305 306 306 307 307 308 308 308 309 310 311 313 314 315 317 319 319 317 315 314 313 314 315 316 318 318 317 317 317 316 319 322 322 321 322 322 321 319 317 319 321 321 319 314 308 306 306 305 305 305 305 306 307 308 309 309 310 310
297 297 297 297 298 298 298 298 299 299 299 299 300 300 300 301 301 301 301 301 301 302 302 302 303 303 303 304 304 305 305 306 306 307 308 308 309 310 311 312 313 315 317 317 317 317 315 314 313 314 315 315 315 315 315 315 315 318 321 321 321 322 322 321 319 317 319 321 321 320 316 310 307 306 306 305 304 304 305 306 307 309 310 310 310
296 296 297 297 297 297 297 298 298 298 298 298 299 299 299 300 300 300 301 301 301 301 301 301 302 302 303 303 304 304 304 305 306 306 307 308 308 309 310 310 312 314 316 317 318 317 316 315 313 312 313 313 313 313 314 314 315 318 321 322 322 322 320 320 319 318 319 321 321 320 318 313 308 307 307 307 305 304 304 304 307 309 310 309 310
295 295 295 296 296 296 296 297 297 297 297 298 298 298 299 299 299 299 300 300 300 301 301 301 301 301 301 302 303 303 304 305 305 306 307 307 307 308 308 309 310 311 313 314 314 314 314 313 313 313 313 313 313 313 313 314 315 317 319 321 321 320 319 319 320 319 319 321 321 319 318 316 310 307 308 308 306 304 303 304 307 310 310 309 310
293 293 294 294 294 294 295 295 295 296 296 296 297 297 298 298 298 299 299 299 300 300 300 301 301 301 301 301 301 302 303 304 305 305 306 306 307 308 308 309 310 310 311 313 314 315 314 314 316 317 315 313 313 312 313 313 315 316 316 318 318 319 320 319 319 319 320 321 321 319 318 316 313 309 308 308 306 303 303 304 308 310 310 310 310
292 292 292 293 293 293 293 294 294 294 294 295 295 296 296 297 297 298 298 299 299 299 299 300 300 300 300 300 300 301 302 303 304 305 305 306 306 307 308 308 309 311 313 315 316 316 316 315 316 316 313 312 312 313 314 315 315 315 315 316 318 320 321 320 319 320 320 321 320 319 318 317 315 312 309 308 306 303 303 304 308 310 310 310 311
291 291 291 291 292 292 292 292 292 293 293 293 294 294 295 295 296 296 297 298 298 298 299 299 300 300 300 300 300 300 301 301 302 303 304 305 305 306 307 307 307 309 311 312 313 314 314 313 313 312 312 313 313 314 315 315 315 315 316 318 318 319 320 320 320 320 321 321 320 318 318 317 316 313 310 308 306 304 303 305 308 310 310 311 312
290 290 291 291 291 291 291 291 291 291 292 292 292 293 293 294 294 295 295 296 297 298 298 298 299 299 299 300 300 299 300 300 301 302 303 304 304 305 305 306 306 307 308 308 309 311 311 311 311 311 312 314 315 317 317 316 316 317 319 319 319 319 320 320 320 320 320 321 319 318 318 317 316 313 310 308 307 304 303 306 309 310 311 312 312
290 290 290 290 290 290 290 290 290 290 291 291 291 291 292 292 293 293 294 294 295 296 297 297 298 298 299 299 299 299 299 299 300 301 302 303 303 304 304 305 305 306 307 307 307 308 309 309 310 310 311 313 315 317 317 316 317 318 318 319 319 319 319 319 320 320 320 320 319 318 318 317 315 313 310 309 308 305 304 306 310 311 311 313 315
290 290 290 290 290 290 290 290 290 290 289 290 290 290 291 291 292 292 293 293 294 294 295 296 297 297 298 298 298 299 299 299 299 299 300 301 302 303 304 304 305 305 306 306 307 307 308 308 309 310 310 310 312 313 314 316 317 318 317 316 317 317 317 318 320 320 320 319 318 318 317 317 315 312 310 309 308 305 304 307 310 311 312 314 316
290 290 290 290 290 290 290 290 289 289 289 289 289 289 290 290 291 291 291 292 292 293 294 294 295 296 297 297 298 298 298 298 298 298 299 299 301 302 303 303 304 304 305 305 305 306 307 307 308 309 309 309 310 311 313 315 316 316 315 314 315 315 316 318 320 320 319 318 318 318 317 316 314 312 311 310 308 305 305 308 310 311 313 315 317
290 290 290 290 290 289 289 289 289 289 288 289 288 289 289 289 290 290 290 291 291 292 292 293 293 294 295 296 297 297 298 298 298 298 298 298 299 301 302 302 303 303 304 304 304 305 305 306 307 307 308 308 308 309 311 312 312 313 313 313 313 315 317 318 319 319 319 318 318 318 317 315 313 311 311 310 307 305 306 309 310 311 313 315 317
289 289 289 289 289 289 289 288 288 288 288 288 288 288 288 288 289 289 289 290 290 291 291 292 292 293 294 294 295 296 297 297 298 298 298 298 299 299 300 301 302 303 303 303 304 304 305 305 305 306 307 307 308 308 309 310 311 311 311 311 312 314 317 318 319 319 318 318 318 317 315 314 312 311 310 309 307 305 306 309 310 311 312 314 316
288 288 288 288 288 288 288 288 288 288 288 288 287 288 288 288 288 288 289 289 289 290 290 291 291 292 292 293 294 294 295 296 297 298 298 298 299 299 299 300 301 302 302 302 303 303 304 305 305 305 306 306 307 307 308 309 310 310 310 310 311 313 315 317 318 318 317 316 317 316 314 313 312 310 310 309 307 305 306 309 310 311 311 312 314
287 287 287 287 287 287 287 287 287 287 287 287 287 287 287 287 288 288 288 289 289 289 290 290 290 291 291 292 292 293 294 295 296 297 297 298 298 299 299 299 299 301 301 302 302 303 304 304 305 305 305 305 306 306 307 308 308 309 309 310 311 313 315 316 317 317 317 316 316 315 314 313 311 310 310 309 307 306 307 309 310 311 311 311 312
287 287 287 287 287 287 287 287 287 287 287 287 287 287 287 287 287 287 287 288 288 289 289 289 290 290 291 291 291 292 293 293 294 295 296 297 298 298 299 299 298 299 300 301 302 302 303 303 304 305 305 305 306 306 307 307 307 308 309 310 311 313 315 315 316 317 316 317 316 314 313 312 311 310 309 308 306 306 307 309 310 312 312 311 311
286 286 286 286 286 286 286 286 286 286 286 286 286 286 286 286 287 287 287 287 288 288 288 289 289 289 290 290 291 291 292 293 294 294 295 296 296 297 298 299 299 298 298 299 300 301 302 302 303 304 304 305 306 306 307 308 308 309 311 311 311 313 314 314 315 316 316 316 314 313 312 311 310 309 308 307 306 306 308 310 310 312 313 312 312
286 286 286 286 286 286 286 286 286 286 286 286 286 286 286 286 286 286 287 287 287 287 288 288 288 289 289 289 290 290 291 292 293 294 294 294 295 296 297 298 298 298 298 298 298 299 300 301 302 302 303 305 305 306 307 308 309 310 311 311 312 313 314 314 315 315 315 315 313 313 312 311 310 309 308 307 306 306 309 310 310 311 312 311 311
286 286 286 286 286 286 286 286 286 286 286 286 286 286 286 286 286 286 286 286 286 287 287 287 287 288 289 289 290 290 291 292 292 293 294 294 294 295 296 297 297 298 298 298 297 298 299 300 301 301 302 303 304 305 307 308 308 309 310 311 312 313 313 313 313 314 315 314 313 313 312 312 310 309 307 306 306 306 309 310 310 311 311 311 311
286 286 285 286 286 286 286 286 286 286 286 286 286 286 286 286 286 286 286 286 286 286 286 286 287 287 288 289 290 290 291 291 292 293 293 294 294 295 295 296 296 297 298 298 297 297 297 298 299 300 301 302 303 304 305 306 308 308 309 310 311 312 312 312 312 313 314 314 313 313 312 312 311 309 307 306 306 307 309 310 310 311 311 310 311
285 285 285 285 285 285 285 285 285 285 285 285 285 285 285 285 286 286 286 286 286 286 286 286 286 286 287 288 288 289 290 291 292 292 293 293 294 294 295 295 295 296 297 297 297 297 297 297 298 299 300 300 302 303 304 305 306 307 308 308 308 309 310 311 311 312 313 313 313 312 312 311 311 309 306 305 305 306 308 310 310 311 311 310 310
285 285 285 285 285 285 285 285 285 285 285 285 285 285 285 285 285 285 285 285 285 286 286 286 286 286 286 287 287 288 289 290 291 292 292 293 294 294 295 295 295 296 297 296 296 296 296 296 297 297 298 299 299 301 302 304 304 305 306 307 307 307 308 309 310 311 312 312 312 312 311 311 311 309 306 304 305 306 308 310 310 311 311 311 310
Wind_Speed
22 20 18 17 15 14 13 13 12 11 10 10 8 7 6 5 5 5 5 5 5 5 6 7 7 8 7 7 7 7 8 9 10 11 11 11 11 11 12 12 12 10 10 10 11 12 14 15 16 16 17 17 17 17 16 16 15 16 17 18 19 19 19 20 20 20 20 19 20 20 21 21 21 20 20 20 19 18 17 16 15 14 13 12 13
20 19 18 17 16 15 15 14 13 12 11 10 8 7 6 6 6 6 6 6 6 6 6 6 7 8 8 8 8 8 9 10 10 11 11 12 11 10 11 12 11 10 10 10 10 11 12 13 14 15 15 16 16 16 15 15 16 16 17 18 19 20 20 20 21 21 22 22 21 21 22 22 23 23 22 22 21 21 20 19 18 16 14 14 14
20 20 19 18 17 16 16 15 14 13 12 10 8 8 7 8 8 8 8 8 7 7 7 6 7 7 7 8 8 9 9 10 11 12 12 13 13 11 11 11 11 11 11 11 10 11 12 12 13 14 14 15 15 16 16 16 16 17 17 18 19 20 20 20 21 22 23 23 23 23 22 22 23 24 24 24 24 23 23 23 21 19 17 16 16
22 21 20 19 18 17 17 15 15 13 12 11 10 10 10 10 10 10 10 10 9 9 9 10 9 9 9 9 9 9 10 10 11 12 13 14 14 14 13 12 12 13 13 13 12 12 12 13 13 14 14 15 16 16 16 17 17 17 18 18 18 19 19 20 21 22 22 22 23 23 23 24 24 24 25 25 26 25 25 24 23 22 21 19 18
24 22 20 20 19 18 17 16 14 13 13 12 12 11 12 12 12 12 12 11 11 10 12 13 12 11 11 11 11 11 11 11 11 12 13 15 16 16 15 15 15 15 16 16 16 15 15 15 15 16 16 17 17 18 18 19 19 19 20 20 20 19 19 20 20 21 21 21 22 22 23 23 24 25 27 26 26 26 27 26 25 25 25 24 22
25 23 21 20 19 18 17 15 14 13 14 13 13 13 14 15 15 15 14 14 13 12 13 14 14 14 13 13 13 13 13 14 13 13 14 14 16 17 17 17 17 17 18 18 19 19 19 19 19 19 19 20 20 21 21 21 22 22 23 23 22 22 21 20 20 21 22 22 23 24 24 24 24 25 26 27 27 27 27 27 27 27 28 28 25
22 21 20 20 19 18 17 14 14 14 15 14 15 15 16 16 16 17 17 16 16 14 15 15 15 16 15 15 16 15 16 16 15 15 16 16 18 19 19 18 18 18 19 19 20 20 20 21 21 21 21 22 22 23 23 24 24 24 25 25 24 24 24 23 23 23 23 24 26 26 26 27 26 26 26 28 29 28 27 28 30 29 28 28 26
21 20 20 20 20 19 17 15 15 16 16 16 17 17 17 18 18 18 18 18 18 17 17 17 17 17 17 17 18 18 19 18 18 18 18 19 19 20 20 20 19 20 20 21 21 21 21 22 22 22 22 23 23 24 24 25 25 24 24 25 25 25 26 26 26 26 25 26 27 28 28 28 28 27 27 28 29 29 28 29 31 30 28 28 27
22 22 22 22 22 21 19 18 18 19 18 18 19 18 18 19 18 18 19 19 19 19 18 18 19 19 19 20 20 20 20 19 19 20 21 23 22 22 22 21 21 21 22 23 23 23 23 24 24 24 24 25 25 25 26 26 26 25 25 25 25 26 27 28 28 28 27 28 29 30 30 30 29 29 28 28 28 28 28 29 31 30 29 29 28
25 24 24 24 23 22 21 19 19 20 19 19 19 18 18 19 19 19 18 19 19 20 19 19 20 21 22 23 22 23 22 21 21 22 23 25 25 25 23 23 23 24 25 25 25 25 24 25 26 26 27 27 27 28 28 28 28 28 27 27 27 27 27 28 29 28 27 28 28 29 30 30 31 30 29 28 28 28 28 28 29 29 29 28 27
26 26 25 24 22 21 20 19 19 19 19 19 19 18 18 19 20 20 19 20 20 19 19 20 22 24 24 24 24 24 23 22 24 25 26 26 27 26 24 24 25 26 26 26 26 25 25 25 26 27 28 28 29 29 29 30 30 30 29 29 29 28 27 27 27 26 26 26 26 27 29 29 29 29 29 29 28 28 27 27 27 27 28 28 27
27 27 27 24 22 21 20 19 19 19 20 20 20 20 20 21 22 21 21 22 21 21 21 21 23 26 27 27 27 28 27 26 27 28 28 27 28 29 29 27 27 26 26 26 26 26 26 26 26 27 28 28 28 29 29 30 30 30 30 29 29 29 28 27 26 26 27 28 28 28 29 28 28 29 29 29 28 28 27 27 27 27 27 28 28
27 25 25 23 22 20 20 19 19 20 21 22 22 21 21 22 22 22 22 23 23 22 21 21 24 28 28 28 29 29 30 30 29 27 27 27 28 29 29 28 27 25 24 25 25 25 25 25 25 26 26 27 27 28 28 29 29 29 28 28 28 28 27 27 27 27 28 28 29 29 29 28 29 29 29 29 29 28 28 27 27 26 26 27 27
21 20 20 19 19 19 19 20 20 20 21 21 21 20 20 20 21 23 24 25 23 21 21 22 23 26 26 28 31 30 30 32 30 27 26 27 27 27 26 25 23 21 20 21 22 21 22 22 22 23 24 25 25 25 26 27 27 27 26 25 25 25 26 27 27 27 28 28 28 28 28 29 29 29 28 28 29 29 28 27 27 27 27 28 28
18 18 18 16 16 17 17 18 19 20 21 22 21 20 21 21 22 24 25 26 24 23 24 22 21 24 24 26 29 30 30 30 29 28 27 28 30 28 26 23 20 19 19 21 21 20 20 21 22 23 23 23 24 24 25 25 25 24 23 23 24 24 26 27 28 28 28 28 27 27 28 28 27 28 28 28 28 28 27 27 27 28 28 28 27
18 19 20 19 19 18 17 16 15 16 20 23 23 23 23 23 23 23 23 25 25 26 24 21 19 20 21 24 26 25 25 24 25 29 30 31 31 28 26 26 25 24 24 24 23 22 23 23 23 23 23 23 23 23 24 24 23 23 23 23 24 25 27 28 28 29 29 29 28 27 27 26 26 26 27 27 27 28 28 28 28 28 28 28 27
21 21 22 23 23 23 22 21 20 18 20 22 21 23 24 25 23 22 23 25 26 27 25 21 19 19 20 24 24 21 21 25 29 33 34 31 31 30 30 32 31 29 28 27 26 27 27 25 23 24 24 24 23 24 24 24 23 24 24 24 24 26 28 28 29 29 30 30 29 27 26 25 24 25 27 27 28 28 29 30 30 29 30 30 29
24 25 25 26 27 27 26 26 27 26 26 24 19 19 22 24 23 22 22 24 26 28 26 23 24 24 24 25 24 24 27 30 31 33 34 33 33 34 35 35 33 32 33 32 33 33 30 27 27 27 27 26 25 25 26 25 24 25 25 25 26 27 28 28 28 29 30 30 30 29 26 24 25 25 27 28 29 30 31 32 32 32 32 33 31
25 26 27 28 29 30 30 30 30 30 30 29 26 25 24 22 23 23 22 22 24 26 26 25 27 28 27 25 25 27 28 30 31 31 33 36 36 35 36 37 36 35 35 34 35 35 33 33 33 32 30 28 26 26 27 27 26 25 25 25 27 28 28 27 27 29 30 30 30 30 28 25 26 26 27 28 30 31 32 34 35 35 34 32 30
23 24 26 27 27 28 29 30 32 32 33 33 32 32 29 24 23 22 21 23 25 27 26 25 26 27 27 26 25 27 27 28 31 31 31 37 41 39 38 37 35 35 37 37 37 38 38 38 36 34 33 30 27 28 29 30 27 26 26 25 26 28 27 26 26 28 30 30 30 30 29 26 26 26 26 29 31 32 34 36 37 34 31 28 27
23 24 24 25 25 26 27 28 30 31 32 33 33 33 33 31 29 25 22 21 21 24 26 26 28 27 26 25 25 29 30 27 28 30 30 36 42 42 36 33 34 39 40 39 40 40 40 39 36 36 35 32 30 29 30 29 27 26 26 24 24 26 26 25 26 28 30 30 30 30 29 27 25 25 27 30 33 34 36 36 32 28 28 29 29
24 25 25 25 25 26 26 27 28 28 29 30 31 32 33 33 34 33 31 28 23 21 21 23 26 29 29 28 27 29 30 27 27 30 29 31 34 37 36 36 40 43 41 40 40 39 37 36 36 36 35 34 32 30 29 29 28 28 26 23 22 23 24 25 26 28 29 30 29 29 29 28 24 25 28 31 33 36 37 33 27 25 28 29 30
24 25 26 26 27 27 27 28 28 28 28 29 29 30 31 32 33 34 35 35 33 30 27 24 21 22 24 25 26 28 29 28 28 29 29 29 31 35 39 40 41 41 40 40 39 36 35 36 37 37 35 35 33 31 30 28 28 27 25 22 21 21 22 25 26 27 28 28 28 29 29 27 24 26 30 32 34 36 34 28 24 25 28 29 30
21 22 23 24 25 26 28 29 29 30 30 30 30 30 30 31 32 33 33 33 34 35 35 32 27 24 23 23 24 25 25 25 26 26 27 28 30 33 34 35 38 39 38 38 38 38 38 39 40 38 36 34 34 33 30 27 26 25 22 20 19 21 23 26 27 26 26 27 27 28 28 26 24 26 30 33 34 33 28 24 25 27 28 30 32
15 16 17 19 20 21 22 24 26 28 30 31 32 32 32 32 32 32 33 33 33 33 34 34 34 34 33 32 31 29 27 26 26 26 28 29 30 32 33 34 38 42 42 42 43 43 42 42 41 38 35 34 34 33 29 25 24 23 20 18 18 21 24 24 24 24 25 26 27 27 27 24 23 25 28 30 30 29 27 26 28 29 29 31 31
9 9 10 11 12 14 15 17 19 21 23 26 28 30 32 33 33 33 33 34 34 34 34 34 35 36 36 36 36 36 34 33 32 33 34 34 33 34 36 38 40 43 45 46 45 44 45 44 41 39 36 34 33 30 26 24 24 22 19 17 18 20 23 22 22 23 24 24 25 25 26 25 24 26 28 28 28 28 29 30 31 32 32 31 30
5 5 5 5 6 7 9 10 12 13 15 18 20 22 25 27 30 32 33 34 34 35 35 35 36 36 36 36 37 38 38 38 37 37 37 36 35 34 34 36 39 42 44 44 44 44 43 41 37 35 32 28 25 22 23 25 25 23 20 18 18 21 23 24 24 24 24 24 25 25 26 26 25 27 28 28 28 29 31 32 33 34 32 30 28
3 3 4 5 5 6 6 7 8 9 10 11 13 15 17 19 21 24 26 29 31 33 34 35 35 35 35 36 36 37 37 38 38 38 38 37 35 33 33 33 35 39 40 41 42 40 37 36 35 33 29 23 21 22 25 29 26 22 19 18 20 24 25 26 26 27 26 26 25 25 25 25 25 26 27 27 27 29 31 32 33 34 33 31 29
3 4 5 6 7 7 8 8 8 8 9 9 10 11 12 13 15 17 19 21 24 27 29 31 32 33 34 34 35 35 35 35 36 36 37 36 35 34 34 32 32 35 36 39 41 39 37 38 38 37 34 30 29 31 32 31 27 21 20 21 23 26 26 26 27 27 26 25 25 24 24 24 25 26 25 25 27 29 31 32 33 34 34 34 32
5 5 6 7 8 8 9 9 9 9 10 10 10 11 11 11 12 13 14 15 18 20 22 25 27 28 30 31 32 33 33 34 34 34 34 35 35 34 34 32 32 33 35 38 43 42 39 41 40 38 38 37 37 38 37 35 30 24 23 25 27 28 27 26 26 26 25 25 25 24 23 23 24 25 25 25 27 29 30 31 33 34 35 35 36
7 7 8 9 9 10 10 11 11 11 12 12 12 12 12 12 12 12 13 13 15 16 17 19 21 23 25 27 28 29 30 31 31 32 32 32 33 33 33 34 33 33 35 37 43 43 40 42 42 40 41 41 41 40 38 35 31 26 25 26 27 28 27 27 26 25 25 26 25 24 23 23 23 24 25 26 27 29 30 31 33 35 35 35 35
9 10 11 11 11 12 12 12 13 13 14 14 14 14 14 14 13 13 14 14 15 15 16 16 18 20 22 23 24 25 26 27 27 28 29 30 30 31 32 34 33 33 33 35 41 45 43 42 44 43 43 42 42 40 36 33 30 28 27 25 26 29 29 27 25 25 25 26 26 25 24 23 23 23 24 25 27 28 29 31 33 34 34 34 34
12 13 14 14 15 15 15 15 16 16 16 16 16 16 16 16 16 16 16 16 16 16 17 17 17 19 21 22 23 23 23 24 25 25 26 27 28 29 30 32 34 35 35 36 41 45 44 42 41 41 41 42 43 40 37 34 30 30 30 30 31 33 31 26 25 25 26 26 26 26 25 24 23 23 24 25 25 27 29 30 32 32 32 32 32
14 14 15 16 17 17 18 18 18 18 19 19 19 19 19 19 18 18 18 18 18 18 18 18 18 19 20 21 22 22 23 24 24 24 25 25 26 28 29 29 31 33 33 34 39 42 43 39 35 36 39 41 42 39 37 35 32 30 32 33 33 32 28 25 26 27 27 27 27 27 25 25 25 24 24 24 25 27 28 30 31 31 30 30 30
14 14 15 16 17 18 19 20 20 21 21 21 21 22 21 21 21 20 20 20 20 20 20 20 19 19 20 21 22 23 23 23 24 24 24 24 24 26 27 28 29 30 29 30 34 38 40 39 37 37 38 39 39 38 35 35 34 33 33 32 30 28 27 27 27 28 28 28 28 27 26 26 26 25 25 25 25 26 28 29 30 30 29 28 28
13 13 14 15 16 17 18 19 20 21 22 22 23 23 23 23 23 22 22 22 22 22 22 21 21 21 21 22 22 23 24 24 25 25 25 25 25 25 27 28 29 30 31 32 34 36 38 40 39 37 36 37 37 37 36 35 35 34 33 32 31 30 29 28 29 29 29 28 28 27 27 27 27 26 25 25 26 26 27 28 29 28 27 27 26
12 13 14 15 16 16 17 18 19 20 21 22 23 23 24 24 24 24 24 24 24 23 23 23 23 23 22 23 23 24 25 26 26 26 25 25 25 26 26 28 28 30 32 34 36 37 38 40 40 37 36 35 35 37 38 36 35 34 33 33 33 33 31 31 31 30 29 29 28 28 27 27 27 27 26 26 26 26 27 28 27 26 25 24 22
12 13 14 14 16 16 17 18 19 19 20 21 21 22 23 24 25 25 25 25 25 25 25 25 24 24 24 24 24 24 25 26 27 27 27 27 27 27 26 27 28 29 31 33 35 37 38 39 39 38 37 34 34 37 38 37 37 35 33 33 33 34 33 33 32 31 29 29 28 28 28 27 27 27 26 26 26 26 27 27 26 25 22 20 18
11 12 13 14 15 16 17 18 19 19 20 21 21 21 22 23 24 25 25 26 26 26 26 26 26 26 26 25 25 25 25 26 27 28 29 29 29 28 28 27 28 29 31 32 34 35 37 39 39 39 38 36 36 36 37 37 36 33 31 33 34 35 34 33 32 30 29 28 28 28 28 27 27 27 26 26 26 26 25 26 25 23 19 17 16
11 12 13 14 15 16 17 18 19 20 20 21 21 22 22 23 24 24 25 25 26 26 26 26 26 27 27 27 26 26 26 27 27 27 28 28 30 31 30 29 29 30 31 32 33 34 36 38 40 40 40 39 38 37 34 32 31 30 30 31 33 34 32 32 31 30 29 29 28 29 29 28 27 27 26 27 26 24 24 24 23 21 17 14 13
10 12 13 14 15 16 17 18 19 20 20 21 22 22 23 24 25 25 25 26 26 26 27 27 27 27 27 28 28 27 28 28 28 28 27 27 27 29 31 31 31 31 31 32 33 34 35 38 40 41 41 41 40 37 35 34 35 34 32 31 32 31 30 30 30 30 30 30 30 30 29 28 27 26 26 25 24 22 22 21 22 20 15 12 11
9 11 12 13 14 15 17 18 19 19 20 21 22 22 23 24 25 26 26 26 26 27 27 27 27 28 28 28 29 29 29 29 29 29 29 28 27 27 29 30 31 32 32 32 33 33 34 36 39 39 40 41 40 38 38 39 38 36 34 33 33 32 31 32 32 30 29 30 30 31 30 28 27 25 24 23 22 21 20 19 20 18 14 11 9
9 10 11 12 13 14 15 16 17 18 19 20 21 22 22 23 24 25 26 26 26 27 28 28 29 29 29 29 29 30 31 31 30 30 30 31 30 29 29 28 29 30 30 32 33 33 33 35 37 38 38 41 41 40 40 40 37 37 36 35 34 33 33 36 36 31 27 27 29 31 30 27 25 25 24 23 22 21 19 18 18 16 14 13 10
9 10 10 11 12 12 13 14 15 16 17 18 19 20 21 22 24 25 26 26 27 27 28 28 29 30 30 30 30 30 31 31 32 32 32 32 32 32 32 30 29 29 29 29 31 32 33 34 36 37 37 38 40 40 39 39 38 38 36 35 36 35 36 40 39 33 27 26 29 32 31 28 26 26 25 22 21 20 18 16 15 15 16 15 12
9 10 10 11 11 12 12 13 13 15 16 17 18 19 21 22 23 24 25 26 27 27 28 29 29 30 31 31 31 31 31 31 31 32 32 33 33 33 33 33 32 30 29 29 29 30 32 33 36 38 37 36 38 38 37 37 38 38 36 37 36 35 37 40 38 33 30 28 28 31 32 29 27 27 25 22 21 20 17 15 14 15 17 15 13
9 10 10 10 10 11 11 12 13 14 15 17 18 19 20 21 23 24 25 26 26 27 28 29 30 30 31 32 32 32 31 31 31 31 32 33 34 34 34 35 34 33 32 31 29 28 30 32 35 38 37 36 37 38 35 34 36 36 34 36 36 35 37 37 35 35 32 27 26 30 32 31 29 28 25 22 22 20 17 16 14 15 16 15 15
9 10 10 10 10 10 11 11 12 13 15 16 17 18 19 20 21 22 24 25 26 27 28 29 29 30 31 31 32 32 32 31 30 30 31 32 33 35 35 35 36 35 35 34 32 29 28 30 32 35 36 36 37 37 35 33 34 34 31 33 34 35 36 38 38 38 32 25 26 30 32 32 29 28 26 22 21 20 17 16 16 16 17 17 17
10 10 10 10 10 10 10 12 12 13 14 15 16 17 19 20 21 22 23 24 25 26 27 28 29 29 30 30 31 31 32 31 31 30 31 32 33 35 36 36 36 36 36 35 35 32 29 28 31 33 34 34 35 35 34 33 33 32 30 33 34 34 36 39 41 39 31 25 27 29 31 32 30 27 26 23 21 21 19 17 17 18 20 19 18
10 10 11 11 11 11 11 12 13 12 13 14 15 16 18 19 21 22 23 24 25 26 27 27 28 28 29 29 30 31 31 31 31 31 31 32 34 35 36 37 37 37 37 36 36 36 32 29 30 32 32 32 33 34 34 33 31 29 28 32 34 32 34 37 39 37 31 27 27 27 29 31 29 27 26 24 23 22 20 19 19 20 21 19 18
11 11 12 12 12 13 13 13 13 13 12 13 15 16 17 18 20 21 22 23 25 26 26 27 27 28 28 28 28 29 30 31 31 32 32 32 34 35 36 36 38 38 38 36 37 38 37 33 32 32 32 32 32 32 33 32 31 29 29 32 33 32 34 36 36 35 33 29 26 26 29 30 28 27 26 25 24 23 22 21 21 21 22 20 18
12 12 13 13 14 14 15 14 14 14 13 13 15 16 16 17 19 20 21 22 24 25 26 27 27 28 28 27 27 27 28 30 31 31 31 32 33 35 35 36 38 39 38 36 36 38 39 38 36 34 34 34 33 33 33 32 31 30 31 32 32 33 35 35 34 33 34 32 26 24 28 29 26 26 27 26 24 23 23 23 23 23 24 23 21
Wind_Direction
228 231 234 237 237 236 237 237 238 236 232 231 234 243 255 268 279 289 298 302 305 301 289 281 277 276 279 283 285 287 286 284 284 284 286 289 293 297 299 300 301 300 295 286 273 267 268 270 273 275 278 282 285 287 287 285 285 285 286 289 289 289 291 292 291 293 297 297 298 303 303 303 305 307 308 307 305 302 300 301 303 298 285 277 275
230 232 234 235 234 234 236 237 237 236 232 231 235 246 261 273 277 282 287 287 291 292 291 291 285 282 281 284 285 283 283 282 281 281 283 284 288 291 294 296 297 296 291 288 282 277 275 275 276 277 278 280 282 283 283 282 281 281 282 284 287 288 289 290 290 290 292 292 293 296 296 297 299 300 301 302 302 302 299 299 302 301 292 281 279
230 230 232 233 233 236 239 239 238 236 232 231 240 254 268 276 277 279 280 280 282 283 288 295 298 301 298 297 298 293 291 289 282 278 279 282 284 287 289 290 291 291 288 286 284 283 281 280 279 278 279 279 279 280 279 278 278 278 278 278 282 286 287 288 289 290 291 290 289 290 290 290 290 292 295 295 297 299 300 300 297 297 296 287 282
231 231 232 234 237 241 243 242 239 235 232 233 241 254 267 274 277 279 279 280 281 283 287 288 292 298 299 300 301 299 300 298 290 284 281 282 283 285 286 286 287 287 286 285 285 283 281 280 280 279 279 279 279 280 279 278 278 278 278 277 278 281 285 287 288 289 291 292 291 291 292 291 288 288 289 290 293 294 296 298 290 288 292 291 291
233 234 235 238 240 242 242 240 238 236 234 236 241 251 262 270 277 279 278 278 278 282 283 283 286 288 289 292 293 295 299 297 295 292 287 284 284 284 283 283 284 284 285 286 286 286 284 283 281 280 280 280 281 281 281 282 281 281 280 279 278 280 282 284 287 288 289 292 291 291 293 293 291 288 286 285 286 288 289 291 288 286 286 288 294
235 236 238 240 241 241 240 238 235 236 237 239 244 251 259 266 273 277 278 278 278 280 281 283 287 288 288 290 290 292 293 292 293 294 292 291 288 286 285 285 285 286 286 287 287 288 287 286 285 284 283 283 283 283 284 284 284 284 282 280 279 279 280 283 287 288 287 289 289 290 291 292 290 288 287 283 281 284 282 280 282 283 282 284 287
237 238 239 239 241 241 239 238 238 241 243 246 250 254 261 267 272 276 277 277 278 279 281 284 286 289 291 291 291 292 291 290 290 293 295 293 289 289 290 289 289 289 290 290 290 290 289 289 288 287 286 286 287 287 287 288 287 286 285 283 281 280 281 283 286 286 286 288 290 291 291 291 288 286 286 284 282 282 280 280 279 275 277 278 274
236 238 240 241 243 244 243 242 243 246 249 252 256 259 263 268 271 274 275 275 277 277 278 283 285 287 290 289 287 287 286 286 287 290 292 289 286 287 287 287 287 288 289 291 291 292 291 290 290 289 289 289 289 290 291 292 293 291 288 285 282 279 280 282 284 283 283 285 288 290 290 290 289 287 283 282 283 279 280 284 280 273 274 273 268
238 239 240 242 243 245 245 245 247 251 254 257 259 261 264 268 270 271 273 275 275 275 276 280 284 285 285 283 281 280 279 280 283 286 286 285 282 279 279 281 282 282 283 285 288 290 290 290 291 291 291 292 292 291 292 295 297 297 294 289 285 281 278 278 279 279 280 283 285 287 288 288 288 287 283 282 282 280 281 280 276 275 275 273 271
240 240 240 242 243 245 246 245 248 251 255 258 259 261 263 265 267 268 272 276 276 275 275 278 281 282 281 279 278 279 278 277 280 281 280 280 278 278 278 279 280 280 280 280 282 284 285 287 289 290 291 292 292 292 293 294 297 297 297 295 291 288 284 280 279 278 280 281 282 284 287 288 287 285 284 282 282 282 283 279 276 278 278 275 275
235 237 238 239 240 243 245 245 247 251 254 256 258 260 262 263 265 269 271 272 272 273 274 276 280 282 284 284 282 281 282 280 279 279 279 278 278 281 282 280 279 279 279 279 280 281 283 285 286 288 289 289 291 291 291 293 295 297 297 296 294 292 288 284 280 276 274 276 279 282 285 287 285 282 281 280 280 281 282 281 280 279 278 276 277
228 230 231 232 235 239 243 245 246 250 253 255 258 258 260 261 264 270 274 273 273 275 275 277 281 282 284 287 285 283 285 284 277 273 276 278 277 279 280 281 281 281 281 281 282 283 283 284 285 287 287 287 288 289 290 291 292 294 295 295 294 293 292 289 284 278 275 275 277 280 281 282 281 279 278 277 279 279 279 280 281 280 277 276 277
233 234 233 231 232 236 242 246 248 252 255 257 260 263 266 268 270 273 276 276 276 279 281 283 285 282 281 283 285 285 286 287 285 280 280 282 281 278 278 283 284 285 287 286 285 285 285 285 285 286 287 287 287 287 288 288 289 291 291 293 293 294 295 294 291 286 280 276 275 277 279 279 279 277 276 276 278 279 279 279 279 279 277 276 277
236 243 247 242 239 240 243 247 249 252 256 259 261 265 268 273 275 275 275 272 273 281 282 280 280 280 284 289 288 286 284 287 293 293 289 288 289 286 285 289 289 290 291 289 289 290 290 290 289 289 289 288 288 289 289 289 288 288 287 290 292 295 298 299 297 294 289 282 276 274 275 277 279 276 273 275 278 279 279 279 278 277 278 277 277
223 233 239 237 239 244 247 252 256 258 259 259 261 262 262 263 263 268 275 275 274 280 279 276 276 278 285 288 287 288 287 289 294 294 291 291 294 296 297 298 299 297 295 294 295 295 295 294 294 294 292 289 288 289 291 290 288 286 286 289 292 296 300 301 300 298 296 292 285 277 274 275 276 273 271 274 278 279 279 278 277 277 278 278 279
229 234 234 231 232 233 236 242 251 261 262 260 263 267 267 266 259 258 269 277 276 274 274 279 279 276 279 279 281 286 286 291 295 292 290 293 295 297 299 301 302 301 299 296 296 297 298 297 296 296 294 291 290 290 290 290 288 287 288 291 293 297 300 301 300 299 299 297 292 285 280 275 273 271 271 275 277 278 277 276 276 276 276 277 279
241 243 243 242 241 238 237 237 239 248 255 258 266 273 272 272 268 260 262 269 272 273 277 282 275 268 270 270 274 280 283 292 297 295 292 293 295 296 298 300 301 302 301 298 298 301 301 299 296 295 293 290 287 285 285 286 286 286 288 290 292 297 300 301 300 299 301 300 295 292 286 277 271 269 270 274 276 275 276 276 276 275 275 275 276
247 248 249 248 249 248 246 245 244 246 250 252 256 265 269 273 273 269 268 268 270 273 274 272 268 266 265 262 264 272 283 291 293 293 293 294 295 296 297 297 298 300 301 301 303 303 302 302 301 299 298 295 290 285 284 285 282 281 285 287 290 296 300 301 300 299 299 300 297 294 290 277 267 266 268 271 273 274 275 276 276 276 276 275 274
250 251 251 252 253 254 253 251 251 251 253 254 251 253 261 268 270 268 269 272 275 277 274 272 273 273 274 271 268 270 280 286 283 285 291 294 296 296 296 297 298 301 300 301 302 301 303 306 306 305 305 305 303 299 299 297 287 278 279 283 287 293 298 300 301 300 298 298 297 295 291 279 266 265 269 271 272 273 274 277 279 278 278 276 273
251 251 251 253 254 256 258 258 259 258 259 260 259 258 259 260 264 264 263 268 275 277 277 279 280 280 281 278 271 271 276 278 279 282 285 289 293 294 295 296 296 298 298 298 298 299 303 304 304 305 306 306 307 308 308 305 294 281 279 282 284 289 293 297 301 302 299 297 295 294 292 281 267 265 270 272 273 275 278 281 282 279 278 279 276
254 255 254 255 256 257 258 259 261 261 261 261 260 261 259 258 260 262 260 263 271 274 274 276 279 280 281 278 276 277 276 273 275 278 280 284 289 293 294 294 295 298 299 297 296 298 300 300 300 303 305 305 306 308 308 305 296 288 287 286 284 286 288 292 301 303 299 296 294 294 292 283 270 266 268 270 273 276 280 283 283 282 283 284 282
257 258 258 259 259 259 260 260 260 260 261 261 260 260 261 260 261 261 260 260 262 265 271 277 280 279 276 276 278 275 273 274 276 277 278 279 281 288 293 295 295 296 296 293 295 298 298 297 298 302 303 304 306 307 308 306 299 292 291 289 285 285 286 289 298 301 297 294 293 294 292 285 273 266 266 269 273 277 280 282 283 285 285 285 285
262 262 262 262 262 262 262 262 261 261 261 261 261 261 261 262 262 262 262 262 260 258 261 268 275 279 277 277 278 275 274 279 282 280 278 274 276 284 292 297 297 294 294 295 295 297 297 297 300 303 304 305 307 308 309 310 305 296 290 287 287 289 291 292 295 295 291 290 291 292 291 285 273 264 265 269 273 277 281 283 283 280 279 281 283
269 268 267 266 266 265 264 263 263 263 262 262 262 262 263 263 263 264 264 263 262 260 260 259 259 263 265 264 271 277 277 278 282 282 278 277 283 287 291 297 298 295 295 296 295 295 295 297 300 302 302 304 306 306 307 309 310 305 292 283 288 293 295 296 293 289 286 287 290 291 289 284 274 266 268 271 275 280 283 282 280 278 278 280 280
275 273 272 272 271 270 268 268 266 265 264 264 264 263 263 264 264 264 265 265 264 264 263 261 258 259 260 260 264 268 268 268 270 273 275 280 286 288 289 291 293 293 293 293 295 297 297 298 301 302 301 304 306 305 306 306 310 311 295 280 286 293 297 298 296 292 290 290 291 291 289 284 276 273 275 277 281 283 282 280 280 281 281 281 281
279 278 277 277 277 277 275 274 272 271 270 268 267 266 265 265 264 264 265 265 265 265 265 265 264 264 265 266 267 267 268 268 267 268 272 278 283 287 289 289 290 291 291 292 295 297 298 300 304 306 304 305 305 304 304 304 307 310 299 285 285 292 300 304 303 302 301 299 298 295 291 285 279 280 282 284 285 284 282 283 285 286 285 283 284
287 299 303 301 300 297 292 289 285 283 280 278 275 273 271 269 268 266 266 265 265 266 266 267 267 268 268 269 270 270 271 271 271 271 273 277 282 285 288 291 291 291 291 291 292 294 297 302 306 308 309 310 308 303 303 306 309 309 300 288 284 291 300 306 307 306 304 305 305 302 297 291 286 285 286 285 284 283 284 286 287 288 288 287 286
315 332 336 336 340 340 333 324 317 310 303 297 292 288 284 281 277 274 271 269 268 267 267 267 268 268 269 270 270 271 271 272 273 273 274 276 278 280 281 284 288 291 292 292 291 291 294 298 301 303 305 308 305 302 305 308 312 308 292 282 286 293 298 303 307 306 302 300 303 304 302 297 291 287 285 283 282 282 284 287 289 290 289 288 285
345 343 342 342 343 344 346 344 340 336 332 325 318 311 305 300 295 290 285 279 275 272 271 270 269 270 270 270 271 271 272 273 273 273 274 274 274 275 277 278 282 286 288 289 289 288 289 290 293 295 295 296 295 298 303 305 307 300 285 283 290 295 297 304 308 305 300 298 300 303 304 299 293 288 285 283 282 283 285 288 291 291 290 287 284
329 329 330 332 331 332 335 335 336 336 335 335 333 330 325 319 315 311 305 298 290 284 280 277 274 273 272 272 273 273 273 274 275 275 276 275 275 275 275 276 278 280 282 285 286 287 287 288 289 290 290 291 291 294 297 299 298 292 285 286 289 290 295 304 308 304 299 297 299 303 303 299 293 289 287 285 284 285 287 290 292 292 291 288 283
307 306 307 310 313 315 317 319 321 323 324 325 326 327 328 326 324 322 318 314 308 303 297 291 286 282 279 277 276 276 276 276 276 276 276 277 278 277 275 274 275 277 281 284 284 284 286 287 288 288 288 289 291 293 295 296 296 293 286 281 281 287 295 302 304 301 295 295 299 303 304 300 294 289 288 287 287 288 289 291 293 293 292 288 283
299 299 300 301 303 305 308 309 310 312 313 314 316 317 318 320 321 321 321 320 318 317 314 308 301 295 289 285 282 280 280 280 279 279 278 278 279 278 277 276 275 275 278 281 281 282 284 285 286 287 287 289 291 292 295 297 295 291 284 274 277 290 298 298 298 295 290 292 298 302 303 301 297 292 289 288 289 289 290 291 293 294 293 288 284
300 300 300 301 302 303 304 307 307 308 309 310 311 311 312 313 314 315 316 317 317 318 319 317 314 308 302 296 291 287 284 283 282 282 282 281 281 281 280 279 278 276 278 281 282 283 285 287 288 289 289 291 293 295 298 298 294 290 285 278 281 292 297 294 291 288 286 289 295 299 301 301 298 293 290 290 290 289 290 292 294 295 293 288 285
305 305 305 305 306 305 305 306 306 307 308 309 309 309 309 310 311 312 312 313 313 313 314 315 316 315 311 308 303 297 291 285 283 283 283 283 284 284 284 283 282 281 282 284 284 283 284 288 290 289 290 292 295 297 299 298 295 292 287 284 286 290 292 291 286 282 282 287 292 297 300 300 298 295 294 293 292 291 292 294 296 297 294 288 285
316 316 314 313 312 311 311 310 310 309 309 309 308 308 308 309 309 310 311 311 312 311 311 311 311 312 312 311 310 307 301 294 288 285 283 282 282 282 283 283 282 281 282 285 287 285 285 287 288 289 291 293 295 296 297 296 295 291 288 289 290 289 289 289 284 279 280 284 290 296 299 299 299 298 298 297 296 295 296 298 298 297 293 288 285
332 331 327 325 323 321 319 316 314 313 312 311 309 308 309 309 308 308 309 309 311 311 311 311 311 310 310 310 311 310 307 302 297 291 286 283 281 280 280 281 280 279 278 281 284 284 286 289 291 292 294 293 293 295 295 295 294 293 292 292 290 288 289 290 285 280 280 283 289 294 297 298 300 300 299 299 298 298 299 300 298 296 292 286 281
347 344 341 338 335 332 329 325 322 320 317 315 312 312 311 309 308 306 306 307 308 309 311 311 311 311 310 309 310 309 308 306 302 297 292 286 283 281 280 280 280 279 278 278 279 281 285 288 290 291 291 292 296 297 294 294 295 295 295 293 290 288 289 290 285 280 280 284 288 291 294 297 298 299 299 298 298 298 300 300 298 296 290 283 279
348 344 342 340 338 336 333 332 330 327 324 321 318 317 314 311 309 307 305 305 304 306 308 309 311 311 310 310 309 309 309 308 306 301 295 290 285 283 282 282 282 281 279 279 279 281 283 285 287 289 288 291 296 296 293 292 292 292 292 291 288 285 287 288 283 278 280 284 285 288 292 294 296 297 297 296 296 297 299 299 298 296 289 281 279
341 337 338 336 334 333 331 331 330 329 327 325 323 321 318 315 313 310 308 306 304 304 304 305 307 308 309 310 310 309 309 309 308 305 300 295 289 285 283 282 282 282 281 280 280 282 282 284 286 287 287 288 289 291 294 291 285 284 285 286 285 284 288 289 282 277 281 282 283 287 290 291 294 294 293 293 294 296 297 297 297 295 286 278 275
332 331 333 331 329 330 329 329 329 329 328 326 325 323 321 319 318 316 315 313 310 309 307 306 306 306 307 308 309 310 311 310 310 309 306 300 293 288 285 283 282 282 283 283 283 283 283 284 284 286 288 288 286 288 292 289 285 287 289 289 288 287 289 289 280 275 278 280 282 287 288 289 291 289 289 290 292 294 296 296 295 291 281 273 276
327 329 328 328 329 330 329 328 328 329 328 328 327 327 325 323 322 321 320 319 317 315 313 311 309 307 306 306 307 308 309 310 310 310 310 305 297 289 286 284 282 282 283 285 285 285 284 284 284 285 286 287 286 286 286 285 288 294 295 293 291 289 290 286 276 274 279 280 282 286 288 288 286 284 285 288 290 294 295 294 292 289 280 269 275
324 325 324 328 329 328 328 329 329 330 330 330 331 331 329 327 325 324 323 322 322 321 318 316 314 312 310 308 306 306 305 306 307 307 308 308 304 295 287 282 281 282 283 284 285 286 287 286 285 285 286 285 285 285 283 284 288 291 292 293 292 290 288 282 275 277 282 282 283 286 286 285 283 282 283 284 287 292 293 292 289 288 283 272 272
321 321 323 326 326 325 327 328 330 331 330 331 332 332 331 330 329 327 326 327 327 325 323 322 319 317 315 312 310 308 306 305 304 305 305 306 307 303 296 286 278 276 278 281 282 284 286 287 285 285 284 283 283 284 284 285 286 286 289 292 292 290 287 280 276 279 283 283 284 285 284 284 283 280 280 282 286 287 286 284 283 285 284 275 269
314 317 320 322 322 324 328 329 331 332 331 331 332 331 331 331 330 329 329 330 330 329 328 327 325 323 320 318 316 313 312 310 307 306 305 304 305 305 303 297 285 275 271 273 277 280 282 284 285 284 282 282 282 283 283 283 284 284 286 289 290 291 287 280 275 279 283 282 282 283 283 284 282 278 279 281 281 280 277 275 273 275 281 279 274
305 310 314 316 319 322 325 328 331 332 330 331 332 332 332 332 331 330 331 331 331 331 331 330 329 328 326 323 321 319 318 316 314 311 307 305 304 303 303 303 297 287 275 269 269 273 276 278 279 279 279 279 279 278 280 282 282 282 283 284 286 289 287 281 278 280 282 278 278 282 282 282 279 277 278 278 276 273 269 264 257 258 269 276 274
299 303 304 306 311 315 319 325 329 330 329 330 331 331 332 332 332 331 332 331 332 332 332 332 331 330 329 328 326 324 323 321 319 317 313 309 305 303 303 304 304 299 289 279 272 270 273 275 276 275 275 275 274 274 275 276 278 280 282 280 281 285 286 283 281 282 279 271 272 277 279 279 279 277 276 275 273 270 261 253 246 244 256 265 263
294 296 297 298 303 308 312 318 325 328 327 326 328 329 330 331 331 331 332 333 334 334 334 334 334 333 333 332 329 327 325 323 322 321 319 316 311 307 305 304 305 304 299 291 283 278 278 280 279 276 274 273 272 273 272 270 270 274 278 278 279 282 283 281 279 277 272 266 267 271 275 280 280 277 276 273 271 266 254 244 240 239 246 256 258
291 292 293 295 298 302 308 314 320 324 323 322 324 326 327 328 329 331 333 334 335 336 336 337 337 337 338 336 333 329 326 324 322 320 320 319 316 312 309 306 304 304 302 298 292 284 281 282 282 281 278 275 272 272 271 268 266 267 273 277 278 278 279 278 275 270 264 263 267 270 275 279 279 278 276 272 268 261 248 240 239 238 245 253 254
289 290 291 294 296 300 305 310 314 318 319 318 320 322 324 326 327 329 332 333 335 336 337 338 339 340 340 338 336 332 328 325 323 320 319 319 317 316 314 311 307 304 303 304 300 291 284 280 280 281 281 278 274 272 270 268 266 264 268 274 274 273 277 277 273 269 265 265 268 271 275 277 277 278 276 270 264 255 242 239 239 238 244 250 249
287 288 291 295 298 300 304 307 310 313 316 316 317 318 320 322 324 326 328 331 333 333 334 336 338 339 340 339 337 333 329 326 323 321 320 318 315 315 315 314 311 307 306 308 306 299 292 285 280 279 279 278 276 273 270 269 268 265 264 266 268 271 274 275 273 271 268 267 268 270 272 274 276 279 276 269 263 253 240 236 238 238 241 244 245
286 289 291 294 296 298 301 304 307 310 312 313 313 313 316 318 320 322 324 326 327 329 330 332 335 337 338 337 336 333 329 326 323 320 318 316 314 312 313 313 311 310 311 311 307 302 296 290 286 284 282 281 279 276 271 268 268 266 263 263 265 267 269 270 272 271 265 265 271 272 272 276 280 280 274 267 262 255 243 236 235 237 239 240 241